Lexington Weather

Lexington, Massachusetts, USA

67°F
9/23/2021 4:52am 
  • Lexington Conditions: Overcast
  • Temperature: 67.3°F / 19.6°CWarmer 0.9°F than last hour.
  • Dew Point: 66.4°FIncreased 1.3°Fsince last hour.
  • Relative Humidity: 97%Increased 1.0% since last hour.
  • Wind: Wind from SSW SSW 2 mph, 10-min avg: Calm, gust: 5 mph
  • Barometer: 30.03 in Steady
  • Visibility: 10 miles
  • Rain Today: 0.00 in
  •   

Regional Weather Roundup
for Boston / Norton, MA

        
000
ASUS41 KBOX 230504
RWRBOX

REGIONAL WEATHER ROUNDUP
NATIONAL WEATHER SERVICE BOSTON/NORTON MA
100 AM EDT THU SEP 23 2021

NOTE:  "FAIR" INDICATES FEW OR NO CLOUDS BELOW 12,000 FEET WITH NO 
SIGNIFICANT WEATHER AND/OR OBSTRUCTIONS TO VISIBILITY.

MAZALL-230600-
EASTERN MASSACHUSETTS
  
CITY           SKY/WX    TMP DP  RH WIND       PRES   REMARKS
BOSTON         PTCLDY    68  64  87 SE3       30.12S                  
BEVERLY        CLEAR     66  65  96 SE8       30.11S                  
LAWRENCE       CLEAR     68  67  96 VRB3      30.13S                  
BEDFORD        CLEAR     68  66  93 CALM      30.10S                  
BLUE HILL      NOT AVBL                                               
NORWOOD        PTCLDY    67  65  93 SE3       30.11S                  
MARSHFIELD     MOCLDY    68  64  88 SE5       30.12S                  
PLYMOUTH       MOCLDY    69  65  86 SE6       30.12F                  
TAUNTON        PTCLDY    66  63  90 SE3       30.10F                  
NEW BEDFORD    MOCLDY    72  67  84 SE9       30.10F                  
$$

MAZALL-230600-
CAPE COD AND THE ISLANDS
  
CITY           SKY/WX    TMP DP  RH WIND       PRES   REMARKS
FALMOUTH       PTCLDY    70  66  88 S10       30.13S                  
HYANNIS        CLEAR     71  67  87 SE10      30.12S                  
CHATHAM        CLEAR     68  64  87 SE8       30.15S                  
PROVINCETOWN   PTCLDY    69  65  86 SE8       30.14S                  
NANTUCKET        N/A    N/A N/A N/A MISG      30.13F                  
MARTHAS VNYRD  PTCLDY    71  68  90 SE10G20   30.12S                  
$$
 
MAZALL-230600-
CENTRAL AND WESTERN MASSACHUSETTS
  
CITY           SKY/WX    TMP DP  RH WIND       PRES   REMARKS
WORCESTER      CLOUDY    68  67  96 S9        30.12F                  
FITCHBURG      CLOUDY    69  67  93 SE6       30.11S                  
ORANGE         MOCLDY    70  66  87 SE8       30.09S                  
SPRINGFIELD    PTCLDY    70  67  89 S7        30.04F                  
WESTFIELD      CLOUDY    71  70  96 SE8       30.05F                  
NORTH ADAMS    NOT AVBL                                               
PITTSFIELD     CLOUDY    69  65  86 VRB6G17   30.04F                  
$$
 
RIZALL-230600-
RHODE ISLAND
  
CITY           SKY/WX    TMP DP  RH WIND       PRES   REMARKS
PROVIDENCE     MOCLDY    70  68  93 S5        30.10F                  
NEWPORT        MOCLDY    70  67  90 SE12G18   30.10S                  
BLOCK ISLAND   MOCLDY    70  67  90 SE12      30.10S                  
SMITHFIELD     PTCLDY    68  67  96 SE6       30.12S                  
WESTERLY       MOCLDY    69  69 100 SE7       30.09S                  
$$
 
CTZALL-230600-
CONNECTICUT
  
CITY           SKY/WX    TMP DP  RH WIND       PRES   REMARKS
BRADLEY INTL   PTCLDY    70  68  93 S8        30.05S                  
HARTFORD       PTCLDY    73  68  84 S7        30.05S                  
BRIDGEPORT     PTCLDY    74  71  91 SE9       30.03S                  
DANBURY        MOCLDY    74  68  81 VRB3      30.05S                  
GROTON         CLOUDY    71  69  93 SE13      30.07S                  
NEW HAVEN      PTCLDY    75  72  90 SE10      30.04F                  
CHESTER        FAIR      70  70 100 VRB7      30.07F                  
MERIDEN        CLOUDY    72  68  87 VRB5      30.04F                  
WILLIMANTIC    MOCLDY    70  68  93 SE5       30.08F                  
OXFORD         CLOUDY    71  69  93 SE9G17    30.06F                  
$$

MEZ002-015-021-024-NHZ003-005-008-011-012-014-VTZ005-008-230600-
NORTHERN NEW ENGLAND
  
CITY           SKY/WX    TMP DP  RH WIND       PRES   REMARKS
PORTLAND ME    CLEAR     65  64  97 S6        30.14S                  
BANGOR ME      CLOUDY    65  63  93 S7        30.17S                  
CONCORD NH     CLOUDY    68  66  93 SE7       30.10F                  
MANCHESTER NH  CLOUDY    71  66  84 S10       30.09F                  
NASHUA NH      CLOUDY    70  70 100 SE6       30.11F                  
PORTSMOUTH NH  MOCLDY    66  65  98 SE7       30.13S                  
JAFFREY NH     CLEAR     69  67  93 S8        30.11S                  
KEENE NH       MOCLDY    71  66  84 SE8       30.08S                  
BURLINGTON VT  MOCLDY    74  60  61 S9        29.97S                  
MT. WASHINGTON FOG       50  50 100 S43G51      N/A  VSB 1/16         
$$

NYZ052-076-230600-
EASTERN NEW YORK
  
CITY           SKY/WX    TMP DP  RH WIND       PRES   REMARKS
ALBANY         MOCLDY    70  66  87 SE13G22   29.98S                  
NEW YORK CITY  MOCLDY    76  67  73 S15       29.99S                  
$$
 
ANZALL-230600-
MARINE OBSERVATIONS
  
STATION/POSITION TIME  TEMP    WIND        PRES    VSBY  WAVE
                       AIR SEA DIR/SP/G                  HT/PER
                 (UTC) (F)     (DEG/KT/KT) (MB)    (MI)  (FT/S)
BOSTON BUOY      0440      65  150/  8/ 10 1020.1F
BUZZARDS BAY     0400          150/ 17/ 17 1020.3R
NANTUCKET SOUND  0440   73 72  150/ 16/ 19 1019.9F
MASS BAY-STELLWA 0404   67     160/ 10/ 14 1019.5S  1 7/8  3/ 8
ISLE OF SHOALS   0400   67     160/ 13/ 15 1019.5R
S OF BLOCK IS    0426      70                N/A           4/ 6
$$

......................KEY.........................
  SKY/WX - SKY CONDITION/PRESENT WEATHER
  TMP    - TEMPERATURE IN FAHRENHEIT
  DWPT   - DEWPOINT IN FAHRENHEIT
  RH     - RELATIVE HUMIDITY IN PERCENT
  WIND   - DIRECTION AND SPEED IN MPH
  PRES   - MEAN SEA LEVEL PRESSURE IN INCHES OF HG
  WCI    - WIND CHILL INDEX
  VSB    - VISIBILITY IN MILES
  HX     - HEAT INDEX
  TC     - TEMPERATURE IN CELSIUS
  VRB    - VARIABLE WIND DIRECTION
  N/A    - NOT AVAILABLE
  
      

Other recent Regional Weather Roundups

Thu Sep 23, 4:04am

Thu Sep 23, 3:04am

Thu Sep 23, 2:04am

Thu Sep 23, 12:04am

Wed Sep 22, 11:04pm

Wed Sep 22, 10:04pm

Wed Sep 22, 9:04pm

Wed Sep 22, 8:04pm

Wed Sep 22, 7:04pm

Wed Sep 22, 6:04pm

Wed Sep 22, 5:04pm

Wed Sep 22, 4:04pm

Wed Sep 22, 3:04pm

Wed Sep 22, 2:04pm

Wed Sep 22, 1:04pm

Wed Sep 22, 12:05pm

Wed Sep 22, 11:04am

Wed Sep 22, 10:04am

Wed Sep 22, 9:04am

Wed Sep 22, 8:04am

Wed Sep 22, 7:04am

Wed Sep 22, 6:04am

Wed Sep 22, 5:04am

Wed Sep 22, 4:04am

Wed Sep 22, 3:04am

Wed Sep 22, 2:04am

Wed Sep 22, 1:04am

Wed Sep 22, 12:04am

Tue Sep 21, 11:04pm

Tue Sep 21, 10:04pm

Tue Sep 21, 9:04pm

Tue Sep 21, 8:04pm

Tue Sep 21, 7:04pm

Tue Sep 21, 6:04pm

Tue Sep 21, 5:04pm

Tue Sep 21, 4:04pm

Tue Sep 21, 3:04pm

Tue Sep 21, 2:04pm

Tue Sep 21, 1:04pm

Tue Sep 21, 12:04pm

Tue Sep 21, 11:04am

Tue Sep 21, 10:04am

Tue Sep 21, 9:04am

Tue Sep 21, 8:04am

Tue Sep 21, 7:04am

Tue Sep 21, 6:04am

Tue Sep 21, 5:04am

Tue Sep 21, 4:04am

Tue Sep 21, 3:04am

Tue Sep 21, 2:04am

Tue Sep 21, 1:04am

Tue Sep 21, 12:04am

Mon Sep 20, 11:04pm

Mon Sep 20, 10:04pm

Mon Sep 20, 9:04pm

Mon Sep 20, 8:04pm

Mon Sep 20, 7:04pm

Mon Sep 20, 6:04pm

Mon Sep 20, 5:04pm

Mon Sep 20, 4:04pm

Mon Sep 20, 3:04pm

Mon Sep 20, 2:04pm

Mon Sep 20, 1:04pm

Mon Sep 20, 12:04pm

Mon Sep 20, 11:04am

Mon Sep 20, 10:04am

Mon Sep 20, 9:04am

Mon Sep 20, 7:04am

Mon Sep 20, 6:04am

Mon Sep 20, 5:04am

Mon Sep 20, 4:04am

Mon Sep 20, 3:04am

Mon Sep 20, 2:04am

Mon Sep 20, 1:04am

Mon Sep 20, 12:04am

Sun Sep 19, 11:04pm

Sun Sep 19, 10:04pm

Sun Sep 19, 9:04pm

Sun Sep 19, 8:04pm

Sun Sep 19, 7:04pm

Sun Sep 19, 6:04pm

Sun Sep 19, 5:04pm

Sun Sep 19, 4:04pm

Sun Sep 19, 3:04pm

Sun Sep 19, 2:05pm

Sun Sep 19, 1:04pm

Sun Sep 19, 12:04pm

Sun Sep 19, 11:04am

Sun Sep 19, 10:05am

Sun Sep 19, 9:04am

Sun Sep 19, 8:04am

Sun Sep 19, 7:04am

Sun Sep 19, 6:04am

Sun Sep 19, 5:04am

Sun Sep 19, 4:04am

Sun Sep 19, 3:04am

Sun Sep 19, 2:04am

Sun Sep 19, 1:04am

Sun Sep 19, 12:04am

Sat Sep 18, 11:05pm

Sat Sep 18, 10:04pm

Sat Sep 18, 9:04pm

Sat Sep 18, 8:04pm

Sat Sep 18, 7:04pm

Sat Sep 18, 6:04pm

Sat Sep 18, 5:04pm

Sat Sep 18, 4:04pm

Sat Sep 18, 3:04pm

Sat Sep 18, 2:04pm

Sat Sep 18, 1:04pm

Sat Sep 18, 12:04pm

Sat Sep 18, 11:04am

Sat Sep 18, 10:04am

Sat Sep 18, 9:04am

Sat Sep 18, 8:04am

Sat Sep 18, 7:04am

Sat Sep 18, 6:04am

Sat Sep 18, 5:04am

Sat Sep 18, 4:04am

Sat Sep 18, 3:04am

Sat Sep 18, 2:04am

Sat Sep 18, 1:04am

Sat Sep 18, 12:04am

Fri Sep 17, 11:04pm

Fri Sep 17, 10:04pm

Fri Sep 17, 9:04pm

Fri Sep 17, 8:04pm

Fri Sep 17, 7:04pm

Fri Sep 17, 6:04pm

Fri Sep 17, 5:04pm

Fri Sep 17, 4:04pm

Fri Sep 17, 3:04pm

Fri Sep 17, 2:04pm

Fri Sep 17, 1:04pm

Fri Sep 17, 12:05pm

Fri Sep 17, 11:04am

Fri Sep 17, 10:04am

Fri Sep 17, 9:04am

Fri Sep 17, 8:04am

Fri Sep 17, 7:04am

Fri Sep 17, 6:04am

Fri Sep 17, 5:04am

Fri Sep 17, 4:04am

Fri Sep 17, 3:04am

Fri Sep 17, 2:04am

Fri Sep 17, 1:04am

Fri Sep 17, 12:04am

Thu Sep 16, 11:04pm

Thu Sep 16, 10:04pm

Thu Sep 16, 9:04pm

Thu Sep 16, 8:04pm

Thu Sep 16, 7:04pm

Thu Sep 16, 6:04pm

Thu Sep 16, 5:04pm

Thu Sep 16, 4:04pm

Thu Sep 16, 3:04pm

Thu Sep 16, 2:04pm

Thu Sep 16, 1:05pm

Thu Sep 16, 12:04pm

Thu Sep 16, 11:05am

Thu Sep 16, 10:05am

Thu Sep 16, 9:04am

Thu Sep 16, 8:04am

Thu Sep 16, 7:04am

Thu Sep 16, 6:04am

Thu Sep 16, 5:04am

Meta data:

ID: f1827fd8-2091-412f-9366-7147eb85c220
Link: https://api.weather.gov/products/f1827fd8-2091-412f-9366-7147eb85c220